Dewpoint
11 12 14 15 17 18 19 21 22 23 24 25 26 28 29 33 34 42 46 50 62 61 59 60 60 59 56 55 56 56 56 58 57 54 52 52 54 56 55 53 52 52 52
9 11 14 15 17 19 19 21 21 22 23 25 26 27 28 30 33 37 43 46 52 61 59 59 59 58 56 53 54 55 55 54 55 54 51 50 51 50 53 53 51 51 52
7 10 13 13 16 18 19 21 21 22 23 24 25 26 28 32 35 42 41 49 52 61 59 59 59 58 55 53 53 55 54 53 54 53 50 48 48 49 49 51 51 51 51
6 10 13 13 15 17 20 20 21 21 22 23 24 24 25 27 32 34 38 42 47 61 59 58 58 58 55 53 52 53 54 53 52 51 49 47 49 47 47 48 50 51 50
6 9 12 13 16 17 19 20 20 21 22 23 23 23 24 27 29 33 36 40 48 59 60 58 57 58 55 53 52 52 52 51 51 50 48 47 48 46 46 47 48 49 50
5 9 12 14 16 17 18 19 20 19 21 22 22 23 23 25 28 31 34 39 46 56 59 60 57 58 55 52 52 52 51 51 50 49 48 46 47 45 45 44 47 49 49
4 8 10 12 14 15 16 18 19 18 20 21 22 22 23 25 27 30 33 36 41 49 56 59 58 57 57 53 52 52 51 51 50 49 48 47 47 47 46 44 46 47 48
3 7 9 11 14 14 15 17 18 18 19 20 21 22 24 25 27 29 31 33 37 43 48 57 59 57 56 53 52 52 52 52 51 49 49 48 47 47 46 45 45 46 47
3 5 7 11 12 11 14 16 18 18 19 20 21 21 23 25 26 28 30 34 38 42 48 53 57 57 57 55 52 52 51 51 51 50 49 49 48 48 47 46 46 45 44
3 5 7 9 10 10 12 15 18 18 19 20 21 22 23 24 26 27 30 32 34 38 42 50 56 58 57 57 52 52 52 51 51 50 49 49 49 48 48 47 46 45 45
3 5 6 8 8 9 10 13 15 18 18 19 20 21 22 24 26 27 28 30 33 36 40 46 57 57 56 56 54 51 51 51 51 50 49 49 49 48 48 48 48 46 47
4 6 6 6 7 7 8 10 13 15 18 19 20 21 22 24 25 26 28 30 32 36 39 43 53 57 56 56 55 52 51 50 50 50 49 49 50 49 49 48 48 47 49
5 7 6 7 6 7 6 8 11 13 17 18 19 21 21 22 24 25 28 30 32 35 39 43 50 58 57 56 55 52 51 50 50 50 49 49 49 49 50 48 48 48 48
6 8 7 6 6 7 6 7 10 11 13 17 18 19 20 22 24 25 27 29 32 35 37 40 44 55 57 57 56 54 52 50 50 50 50 49 49 49 50 50 49 49 48
9 9 8 6 6 7 6 7 8 9 11 14 16 18 20 23 24 25 26 29 31 33 35 38 43 49 56 56 57 56 54 52 50 50 50 50 50 49 50 50 50 50 49
7 5 8 6 6 7 6 7 7 7 10 11 13 16 19 21 22 24 25 27 29 30 32 33 36 42 47 43 56 56 55 54 52 51 50 50 49 49 49 50 51 51 50
4 2 3 4 6 6 6 6 7 7 7 9 11 13 18 19 21 23 24 25 27 28 29 29 31 34 37 40 42 50 56 55 54 53 52 50 50 49 50 51 51 51 51
2 1 2 2 3 5 5 7 7 7 7 8 9 12 15 18 19 22 22 24 26 26 27 27 28 30 32 37 39 42 53 55 55 54 53 51 50 49 49 51 51 52 52
-1 -2 0 3 4 5 5 6 6 7 7 7 9 10 12 18 18 19 21 23 24 25 26 26 26 28 29 34 36 38 47 55 54 55 54 52 51 50 49 50 51 51 52
-2 -1 1 3 4 4 6 6 5 6 6 7 9 10 11 18 18 19 20 23 24 24 24 25 25 27 27 31 34 36 39 53 54 54 54 53 53 50 49 50 50 50 50
-1 -0 0 2 3 4 5 5 5 5 7 7 8 9 10 14 18 19 20 21 23 23 23 23 24 25 27 29 32 33 34 36 48 54 54 54 52 51 49 50 50 50 51
-3 2 -0 2 3 5 5 4 4 6 7 6 7 8 7 11 16 19 19 20 22 22 21 21 21 23 25 27 29 31 33 34 36 43 50 52 52 52 50 49 51 50 50
-3 -2 1 1 3 4 5 4 5 6 7 6 6 8 6 9 10 17 19 19 21 20 21 20 20 21 23 25 28 28 30 31 32 34 39 42 48 51 50 50 50 50 50
2 -1 0 2 2 4 5 5 5 7 7 6 6 8 6 9 9 9 18 20 20 21 21 20 19 21 22 24 27 27 27 28 29 30 32 36 38 40 47 46 49 50 51
5 5 2 2 2 4 6 7 7 8 7 6 6 8 9 8 8 8 10 19 21 22 22 22 21 21 21 24 28 27 27 27 28 28 27 27 29 32 34 35 36 40 48
3 6 6 5 4 6 7 9 9 9 8 7 6 8 10 8 9 8 8 10 13 16 19 22 24 23 24 25 26 26 26 26 25 21 21 21 22 23 25 27 29 30 33
Wind_Speed
16 16 18 17 17 18 20 20 22 21 19 18 19 17 16 16 19 15 18 19 20 36 32 25 25 26 27 25 25 21 22 14 18 18 13 10 6 11 13 12 12 11 8
19 19 18 19 17 19 19 21 21 21 18 16 17 16 19 17 19 23 19 18 20 31 32 28 27 27 26 24 26 26 17 10 20 16 13 8 3 2 6 10 14 13 10
21 20 19 21 19 19 19 21 21 21 18 19 17 17 17 16 15 12 15 11 16 32 33 31 29 29 26 27 29 29 27 21 20 23 13 9 9 11 4 8 11 14 12
18 18 20 22 21 20 18 20 20 20 18 19 17 18 18 19 13 19 19 21 15 12 31 32 32 31 29 28 29 27 29 22 25 21 13 7 9 11 8 4 7 11 14
17 20 20 20 22 20 18 20 20 20 19 18 17 16 18 17 17 13 18 17 12 14 19 27 32 33 29 30 31 30 28 25 25 23 14 11 9 10 5 11 8 5 10
22 20 18 16 18 17 17 20 20 20 19 19 18 16 17 19 18 14 12 14 12 11 8 16 29 34 32 33 30 30 31 27 24 22 21 16 14 13 8 4 9 15 10
21 20 20 19 19 20 19 20 21 22 21 20 19 17 16 17 17 14 9 13 10 10 10 8 26 30 31 32 31 31 30 28 25 29 24 17 17 14 10 8 9 9 4
19 18 19 18 18 19 20 20 22 23 22 20 20 17 15 14 13 12 11 12 10 13 15 9 21 26 31 31 31 30 30 27 25 29 23 19 17 18 15 12 16 9 6
18 19 19 16 17 18 20 18 22 23 22 21 19 17 16 14 12 13 11 11 8 11 13 11 5 25 28 31 32 30 32 31 28 28 25 23 18 18 17 17 20 14 16
18 18 17 16 15 17 19 17 18 21 22 20 18 16 17 14 12 11 10 13 12 11 11 14 17 21 27 29 32 31 31 32 28 26 24 24 19 19 17 18 18 15 11
16 16 16 14 15 16 17 17 16 21 21 20 20 18 16 14 13 11 11 10 13 11 13 16 14 21 29 28 29 30 31 31 30 28 27 27 22 22 19 17 18 18 14
13 13 12 12 14 16 18 18 16 19 20 20 19 18 16 15 14 13 14 11 11 12 12 18 13 21 25 29 29 29 29 31 31 29 28 28 22 23 22 21 20 19 16
12 10 12 13 13 15 17 18 17 18 20 21 19 18 18 16 16 16 16 15 13 12 10 17 12 20 21 24 28 30 30 32 31 31 31 31 28 26 22 22 21 19 18
11 9 11 12 12 14 16 18 17 18 18 20 21 20 21 19 17 16 16 15 15 12 11 14 13 11 12 22 21 23 24 29 30 30 31 31 31 30 26 24 23 20 18
10 7 8 11 11 13 16 18 18 18 18 18 21 23 21 19 18 18 18 16 16 15 14 14 13 11 14 14 18 24 26 28 28 28 29 29 29 30 29 27 24 22 21
8 7 6 9 11 12 13 16 19 20 18 18 20 22 21 20 20 20 20 19 20 19 18 18 17 13 11 22 21 24 22 23 26 28 27 27 30 33 34 33 29 27 26
8 7 8 8 9 10 10 14 16 18 20 19 19 21 22 22 22 20 20 21 20 19 19 20 22 19 19 29 21 15 27 26 28 30 29 27 26 30 29 32 32 31 32
8 7 7 6 6 7 9 12 14 17 19 20 19 19 21 22 21 20 21 21 18 19 19 21 20 19 19 31 29 24 25 32 31 29 32 33 30 31 30 27 27 26 27
10 8 5 4 5 7 7 9 13 15 17 19 19 19 20 20 21 22 21 19 18 19 18 18 19 21 21 30 31 29 13 25 29 32 32 32 31 32 36 30 29 27 24
8 8 7 5 4 4 4 7 11 13 17 17 17 17 17 18 20 20 18 17 15 16 16 19 18 24 24 29 32 30 15 23 26 27 28 33 29 34 41 33 29 29 26
12 9 7 8 6 3 1 5 6 10 12 13 13 15 16 15 17 17 17 18 16 16 17 17 19 20 24 24 32 31 20 16 13 27 26 25 31 30 37 38 29 30 24
10 12 11 10 7 4 2 4 6 6 10 13 12 15 16 14 13 17 18 17 16 15 18 18 17 18 20 26 29 30 27 25 13 4 14 20 32 30 37 35 28 26 26
10 12 14 11 8 6 4 5 4 5 8 11 13 14 15 13 14 14 15 16 16 16 13 16 16 18 19 20 27 30 30 26 18 16 11 6 19 33 29 34 33 30 24
8 10 12 12 10 7 5 5 3 4 7 9 11 12 13 14 15 12 12 12 14 15 16 15 16 16 18 21 22 21 22 24 18 16 15 13 9 10 9 14 26 27 23
8 8 15 14 12 9 7 5 3 2 5 6 7 9 9 12 13 12 11 10 12 15 16 16 13 17 19 22 26 23 24 21 19 13 12 14 11 9 8 4 2 4 18
7 9 12 13 11 10 8 6 4 3 3 5 3 6 7 9 8 10 11 11 11 14 16 19 19 13 19 23 26 24 25 24 21 15 15 14 13 13 11 8 4 5 1
Wind_Direction
307 312 313 315 312 313 316 314 313 315 317 316 316 312 308 302 309 297 288 286 235 187 182 183 179 176 171 173 165 155 143 150 147 124 105 83 87 139 145 146 145 157 166
312 311 310 311 311 306 315 313 311 312 315 310 305 299 299 294 290 285 279 276 284 186 182 181 179 180 173 171 168 165 158 148 165 156 136 146 128 106 155 160 161 171 171
308 310 311 309 309 305 317 312 310 310 312 312 309 303 295 285 301 281 312 293 284 195 182 182 179 181 177 176 176 172 172 166 184 166 155 149 182 154 170 184 171 179 180
312 312 312 313 312 306 312 309 310 312 316 317 308 303 296 293 291 301 301 296 302 227 188 182 180 183 178 184 180 177 178 167 182 182 169 133 136 164 173 190 191 189 187
311 310 307 306 305 306 310 311 312 315 317 311 309 302 294 289 286 290 293 307 310 236 210 191 183 184 189 182 183 178 182 180 180 182 169 140 142 144 148 183 184 202 209
318 310 305 305 308 309 310 323 319 317 317 312 311 302 294 291 292 302 313 308 306 257 171 218 196 186 192 180 185 180 184 186 182 187 175 171 167 173 153 133 172 185 204
318 312 314 317 318 319 320 326 322 320 320 315 313 307 299 292 285 292 297 297 300 294 189 236 212 192 191 185 182 183 182 183 177 182 180 172 172 161 149 139 169 182 185
318 312 313 311 315 321 322 324 323 321 320 319 314 310 303 291 286 286 293 286 288 290 311 238 205 200 187 190 185 186 183 185 181 185 179 176 171 165 166 156 166 166 192
318 315 316 312 322 325 319 322 319 321 319 321 316 313 306 305 299 298 296 286 292 290 289 277 262 199 191 195 185 187 186 185 182 188 181 182 175 173 171 165 175 169 191
313 317 319 317 322 322 317 320 319 321 318 320 320 317 309 310 310 316 314 311 310 298 306 281 254 204 204 191 188 188 186 185 185 188 182 185 180 178 176 174 179 189 174
301 309 312 315 323 325 323 325 329 327 330 332 324 319 315 324 337 329 327 325 313 311 274 277 249 193 182 189 190 186 184 186 184 186 183 189 182 185 181 178 182 191 185
292 303 310 316 328 333 333 333 332 334 334 329 326 327 327 336 345 342 341 334 316 300 292 284 268 187 195 186 186 191 186 185 185 185 184 188 182 185 183 183 188 191 190
304 311 322 324 331 332 334 337 336 339 338 338 336 339 342 345 351 347 343 343 339 311 305 288 284 186 190 192 189 192 187 185 187 185 187 190 188 189 185 184 187 191 194
296 303 313 321 331 335 335 342 342 342 342 345 347 349 346 345 349 354 350 354 344 339 344 309 319 191 166 196 188 195 191 190 190 190 191 193 194 193 187 186 186 186 189
304 308 309 321 330 343 342 344 348 348 345 352 355 352 345 348 353 3 359 359 4 1 357 351 343 320 174 184 192 193 195 197 195 193 194 195 195 195 188 189 189 185 189
286 304 306 321 334 341 343 343 348 353 351 357 358 352 354 353 358 5 5 8 10 13 15 12 11 22 17 1 206 191 197 198 197 196 200 197 193 197 192 195 189 186 188
262 286 299 310 324 335 338 345 344 350 360 359 357 356 356 358 359 2 10 12 11 15 19 17 16 15 20 5 359 250 196 199 206 202 200 199 197 194 194 195 191 192 194
243 258 273 299 321 331 341 340 350 359 359 0 359 357 359 359 358 6 10 9 12 17 18 21 15 11 10 6 2 340 227 197 202 204 203 198 194 193 191 191 197 199 200
230 236 237 264 302 323 335 351 353 356 3 358 357 357 0 2 0 5 6 4 11 17 16 18 16 14 8 4 4 352 271 209 202 202 203 203 194 188 186 189 196 202 208
226 233 233 242 270 303 330 357 360 358 0 353 347 350 360 10 4 360 1 2 9 16 18 17 12 14 8 1 8 359 335 229 200 201 202 199 202 189 186 191 195 201 205
221 226 220 241 258 274 296 349 3 4 344 344 348 354 1 8 9 0 1 360 10 18 18 18 16 11 9 1 7 2 359 344 249 199 199 199 202 195 191 193 198 202 194
213 215 221 237 251 254 283 330 351 349 351 351 359 359 0 6 7 9 1 360 6 17 20 18 16 9 4 4 5 1 3 357 356 292 189 190 192 194 195 194 202 198 193
227 213 211 225 230 239 247 300 320 354 359 1 359 1 360 5 4 10 7 6 5 13 17 19 13 9 1 2 4 2 2 1 1 356 26 70 183 191 197 195 203 197 196
231 214 204 211 225 223 235 244 299 350 359 360 356 354 4 6 2 1 6 8 11 10 9 22 12 7 7 4 1 2 2 357 355 2 2 28 50 101 177 191 204 204 201
242 224 210 212 216 206 217 233 248 314 337 347 347 354 358 3 360 359 357 15 9 17 13 12 20 8 10 5 3 9 5 3 0 3 20 16 11 49 73 59 152 212 208
232 235 226 219 208 195 206 227 236 252 291 316 340 340 353 359 2 2 358 5 10 16 15 17 17 13 12 9 8 15 16 21 26 33 25 28 19 17 38 47 28 45 345